Wind_Speed
13 7 3 3 7 9 11 14 21 23 22 16 22 20 22 23 25 25 26 28 35 39 36 34 29 29 29 30 31 26 29 34
8 3 0 3 4 6 10 15 20 22 21 20 24 23 25 24 23 23 24 31 37 35 33 32 29 28 29 29 29 30 32 36
9 7 7 2 3 5 11 16 17 19 23 22 22 24 23 21 23 22 26 33 37 29 34 29 26 29 27 28 28 31 31 31
16 13 7 5 2 9 12 14 13 17 22 22 23 27 26 22 23 22 28 34 30 30 30 25 28 28 28 27 26 27 31 30
18 11 12 4 4 6 9 10 11 16 21 21 24 26 24 20 22 22 29 33 30 32 25 25 28 27 26 26 25 26 27 29
17 16 10 3 2 3 9 8 11 16 19 20 22 24 20 19 22 24 31 32 30 34 23 26 29 26 25 25 26 26 26 26
20 15 7 7 4 3 5 7 11 16 17 19 22 22 18 21 23 27 32 32 31 34 25 28 30 25 25 24 25 25 25 23
18 10 12 10 4 4 5 6 10 13 16 19 22 20 18 20 22 27 32 32 34 32 27 30 30 24 23 23 24 25 25 24
16 19 15 10 4 6 5 5 9 13 15 18 20 17 18 19 21 26 31 33 34 29 27 30 29 22 24 24 25 26 26 24
23 17 11 6 5 6 5 5 9 12 16 18 18 15 16 18 20 24 29 34 38 30 29 31 28 22 25 26 28 26 26 25
18 14 11 7 5 4 4 5 9 12 16 18 17 15 15 17 20 23 27 32 37 38 34 32 29 25 26 28 29 26 25 27
19 17 13 8 3 3 4 5 9 12 15 17 15 15 15 17 20 20 24 29 33 37 41 36 30 30 29 29 29 29 27 27
20 18 13 6 3 1 4 5 8 10 14 16 14 16 15 17 19 22 20 25 30 32 36 38 32 31 31 31 32 33 28 28
22 17 12 11 7 3 2 4 5 8 13 14 15 17 17 19 19 21 21 22 25 27 31 36 31 31 33 32 33 33 29 29
20 17 14 12 6 5 1 4 5 8 11 13 15 16 17 18 18 19 21 21 24 25 27 32 28 30 31 33 33 33 35 33
20 19 18 14 9 6 2 3 5 8 10 13 14 14 15 16 17 19 21 23 25 27 26 31 29 28 28 31 33 33 39 37
22 21 19 14 9 10 4 3 4 7 9 11 11 13 14 15 17 18 21 22 25 26 30 31 32 26 22 25 29 32 36 41
24 23 19 14 15 10 5 5 4 6 8 9 10 12 13 14 16 17 19 21 22 26 28 30 31 29 22 24 27 31 34 37
26 24 21 19 15 9 6 5 5 5 7 8 9 11 13 14 16 17 18 19 20 24 25 28 29 29 24 25 28 30 32 35
Wind_Direction
164 184 242 273 327 352 348 344 342 342 348 346 354 5 0 353 356 354 345 340 341 340 342 348 358 353 353 353 350 352 348 348
181 213 22 142 324 340 351 342 343 337 349 351 358 3 1 359 360 350 343 343 342 344 350 359 359 358 356 357 353 352 354 357
187 158 144 168 231 339 349 347 340 336 350 356 360 358 4 6 4 351 342 345 343 356 353 2 3 357 360 359 360 353 354 359
169 157 147 184 302 345 355 353 335 337 346 351 355 357 3 11 7 351 345 348 354 358 2 5 2 4 2 359 360 0 354 358
155 148 148 143 39 6 6 360 332 340 344 353 358 3 7 7 0 350 349 354 2 1 14 6 7 8 2 3 5 3 1 1
153 139 136 131 54 359 21 345 334 340 347 356 357 3 9 359 359 351 354 359 7 2 19 9 12 8 7 9 9 4 5 2
143 143 141 151 177 322 22 333 332 340 353 357 359 3 12 3 1 359 360 4 7 5 17 13 12 7 10 13 12 6 4 1
147 138 150 160 193 310 336 324 332 347 355 1 360 7 14 11 3 1 2 7 7 9 18 16 9 9 12 15 14 12 6 8
139 139 157 170 217 307 340 333 340 354 2 6 0 15 12 13 6 4 7 10 9 14 21 18 8 16 20 19 18 13 10 12
139 143 157 181 247 304 356 348 352 1 9 6 3 17 15 14 10 7 11 15 14 17 26 19 18 26 26 25 19 13 15 18
146 159 167 195 245 321 5 356 3 12 9 5 6 21 20 17 16 14 10 14 17 21 27 23 25 33 29 27 21 19 20 22
151 161 170 198 261 319 15 11 13 17 7 3 14 23 24 22 19 21 13 12 17 21 25 23 27 33 29 30 25 25 24 23
159 163 167 181 189 265 18 20 27 12 2 7 25 26 27 25 23 21 24 16 15 18 22 21 26 34 31 33 29 29 22 23
159 161 167 175 190 206 353 37 42 8 2 16 34 28 29 29 30 20 26 23 16 16 24 21 26 33 32 33 29 30 27 32
161 159 171 184 188 184 282 52 44 12 9 27 38 27 30 31 29 24 26 26 20 22 30 25 30 34 34 32 29 32 33 38
166 170 180 184 182 186 169 66 45 17 26 39 40 30 32 33 28 30 30 29 25 28 32 31 34 37 33 32 27 34 37 38
175 183 189 193 189 176 180 112 63 31 43 45 42 33 37 33 35 36 34 30 25 27 33 33 35 40 38 40 29 34 39 40
180 188 190 182 178 190 167 122 78 56 51 54 45 36 42 38 41 37 38 34 23 24 29 34 37 41 41 41 42 40 42 42
181 184 179 179 180 182 150 124 94 75 60 59 53 39 45 47 45 41 38 38 25 21 26 33 38 41 43 44 46 48 47 46
Height
1563 1565 1566 1566 1565 1563 1562 1558 1556 1553 1552 1547 1544 1539 1535 1530 1525 1521 1516 1511 1505 1499 1492 1485 1479 1474 1468 1462 1455 1449 1443 1434
1561 1562 1564 1564 1563 1562 1561 1558 1556 1553 1551 1545 1541 1537 1534 1529 1526 1520 1516 1511 1504 1497 1490 1484 1479 1474 1468 1461 1454 1447 1440 1433
1559 1560 1563 1563 1562 1561 1560 1558 1555 1553 1549 1544 1541 1537 1533 1530 1527 1520 1516 1510 1503 1496 1490 1485 1479 1473 1467 1461 1454 1448 1442 1435
1559 1560 1561 1561 1561 1560 1560 1557 1555 1551 1548 1544 1539 1536 1532 1529 1526 1521 1516 1510 1503 1496 1490 1485 1479 1473 1467 1461 1456 1450 1442 1436
1557 1558 1559 1560 1560 1560 1560 1557 1554 1550 1547 1542 1538 1534 1532 1531 1527 1521 1517 1509 1502 1495 1490 1485 1479 1473 1468 1462 1456 1450 1444 1437
1554 1555 1558 1560 1560 1561 1560 1557 1554 1550 1547 1542 1538 1535 1534 1531 1526 1521 1516 1509 1502 1495 1491 1486 1479 1474 1468 1462 1456 1450 1445 1439
1550 1555 1558 1559 1560 1560 1559 1557 1553 1549 1546 1542 1539 1536 1534 1530 1525 1521 1516 1509 1503 1497 1492 1486 1480 1474 1469 1463 1457 1451 1445 1439
1548 1553 1554 1558 1559 1559 1559 1556 1553 1549 1546 1542 1540 1537 1534 1531 1526 1522 1516 1510 1503 1497 1492 1485 1480 1475 1470 1464 1458 1451 1446 1439
1547 1550 1554 1557 1557 1558 1558 1555 1552 1549 1546 1542 1541 1538 1535 1532 1527 1523 1518 1512 1506 1499 1494 1487 1482 1476 1471 1465 1458 1452 1447 1440
1545 1550 1553 1555 1556 1557 1556 1554 1552 1549 1546 1543 1542 1539 1536 1533 1529 1524 1520 1515 1508 1501 1495 1489 1483 1477 1472 1466 1460 1453 1448 1442
1545 1549 1552 1554 1556 1556 1555 1554 1552 1549 1546 1544 1543 1540 1537 1534 1530 1526 1522 1517 1511 1504 1497 1491 1485 1480 1475 1469 1462 1455 1449 1443
1544 1548 1551 1553 1555 1555 1554 1554 1553 1549 1547 1546 1543 1540 1538 1535 1531 1528 1524 1519 1514 1507 1501 1494 1488 1483 1477 1471 1465 1458 1451 1446
1544 1547 1550 1552 1554 1555 1555 1554 1553 1550 1548 1547 1545 1542 1539 1536 1532 1530 1526 1521 1516 1511 1505 1498 1491 1486 1481 1475 1469 1462 1454 1448
1543 1547 1549 1551 1554 1554 1555 1555 1553 1551 1549 1548 1546 1543 1540 1537 1534 1532 1528 1524 1519 1514 1508 1501 1495 1489 1484 1479 1474 1467 1459 1452
1543 1547 1549 1551 1554 1555 1555 1555 1554 1552 1550 1549 1547 1545 1542 1539 1537 1533 1530 1526 1521 1516 1511 1505 1499 1494 1489 1483 1478 1471 1464 1455
1543 1546 1548 1551 1554 1555 1555 1555 1554 1553 1552 1551 1549 1547 1544 1541 1538 1535 1532 1528 1524 1519 1514 1509 1503 1497 1494 1488 1483 1475 1469 1461
1542 1544 1547 1550 1553 1555 1555 1555 1554 1554 1553 1552 1551 1549 1546 1543 1540 1537 1534 1531 1527 1523 1517 1512 1506 1502 1499 1493 1487 1480 1474 1467
1539 1542 1545 1549 1551 1554 1555 1555 1555 1555 1554 1553 1552 1550 1547 1544 1542 1539 1536 1533 1530 1526 1521 1516 1511 1507 1503 1499 1492 1486 1480 1474
1537 1541 1545 1548 1551 1554 1555 1556 1555 1556 1555 1554 1553 1551 1548 1546 1543 1541 1539 1537 1533 1529 1525 1521 1516 1512 1509 1504 1499 1492 1486 1481